Zurück zum Katalog

SL-8 DEB *

AktivLEO
NORAD 14344·DEBRIS·🇷🇺 Russia

Gestartet Apr 28, 1982 von Plesetsk Cosmodrome

Loading…

Nächste Überflüge (nächste 24 Stunden)

TLE

AktuellSource: Space-Track

Epoche: Sep 14, 2026, 15:40 UTC

1 14344U 82037C   26257.65293274  .00001016  00000-0  24979-3 0  9998
2 14344  74.0560  32.5197 0015889 114.9632 258.0458 14.53508238261958

Verfolge SL-8 DEB * in Echtzeit mit AllMySat

Download on the App Store